Wind_Speed
9 8 7 7 7 7 7 6 6 6 6 6 5 5 6 6 5 5 5 5 5 5 4 4 4 3 3 3 4 4 4 5 4 4 5 6 6 6 6 6 7 7 8
7 7 7 7 6 6 6 6 5 5 5 5 5 5 5 5 5 4 3 3 3 3 4 3 3 3 2 2 2 3 3 4 4 4 5 5 5 6 6 6 6 7 7
6 6 6 6 6 6 5 5 4 4 4 4 5 5 4 4 4 3 3 3 2 2 3 3 3 3 2 2 2 2 2 3 4 4 5 6 6 6 6 6 6 7 7
5 5 5 5 5 5 5 4 4 3 3 4 4 4 4 3 3 2 2 2 2 3 2 2 3 3 3 3 3 3 3 3 3 4 4 5 5 6 6 6 7 7 8
5 4 4 4 4 4 4 4 3 3 3 3 3 3 3 2 2 1 0 1 3 3 4 3 4 4 4 4 4 4 4 5 5 5 5 5 6 6 6 7 8 8 8
4 4 4 3 3 2 3 3 3 2 2 2 2 2 2 2 1 1 1 2 3 3 3 4 4 5 5 5 5 6 6 6 7 7 6 6 6 7 7 8 9 9 9
5 4 4 3 3 2 2 2 2 1 1 1 1 1 1 1 2 2 2 3 3 3 4 4 5 6 6 6 6 7 7 7 7 7 8 8 8 8 9 9 10 10 10
6 6 6 5 5 4 4 4 3 3 3 2 2 3 3 3 3 3 4 4 3 4 4 5 6 6 7 7 7 8 8 8 8 9 9 9 9 10 11 11 11 12 12
8 8 7 7 7 7 6 6 6 5 5 5 5 5 5 5 5 5 5 5 5 5 6 6 7 8 8 8 9 10 10 10 11 11 11 11 11 11 12 13 13 13 13
10 9 9 9 9 9 9 8 8 8 7 7 7 7 7 7 7 7 6 6 6 7 7 8 9 9 9 9 10 10 11 12 12 13 13 13 13 13 13 13 14 15 16
12 12 12 13 12 11 11 11 10 10 10 9 9 9 9 9 9 9 9 9 9 9 9 9 10 10 10 11 11 12 13 14 14 14 14 14 14 14 14 15 15 16 17
14 14 14 14 13 13 13 13 12 12 12 12 12 12 12 12 11 11 12 12 12 12 11 11 12 12 12 12 13 14 15 16 16 17 16 16 16 16 16 17 18 18 19
15 14 15 15 15 15 14 14 14 14 14 14 14 14 14 14 14 14 14 14 14 14 14 14 14 14 15 15 16 16 17 17 18 19 18 18 19 19 19 19 20 20 20
17 16 16 17 17 16 16 16 17 16 17 17 16 16 16 16 16 16 16 16 16 16 16 17 17 18 18 18 19 19 19 19 19 20 21 21 21 21 21 21 22 22 22
19 18 18 17 18 18 18 18 19 19 18 18 18 18 18 18 18 18 18 18 18 18 18 19 20 20 20 20 21 22 21 21 21 22 22 23 23 24 24 24 23 24 24
22 21 20 20 20 20 21 21 20 20 20 20 20 20 20 20 19 20 20 20 20 20 21 21 22 22 22 23 23 24 24 24 24 24 24 25 25 26 26 26 26 26 27
23 23 23 23 22 22 23 22 22 22 22 23 22 22 22 22 22 23 22 22 22 23 23 23 23 23 24 25 26 27 27 27 27 27 27 28 28 28 28 29 29 29 29
24 25 25 25 24 24 23 23 24 25 25 25 24 24 23 24 24 25 25 25 25 25 25 25 25 25 25 25 26 27 28 29 29 29 30 30 31 30 30 31 31 30 30
27 28 27 27 26 25 25 25 26 26 25 25 25 25 26 26 26 27 27 27 27 27 27 27 26 27 28 28 29 30 30 30 29 30 31 32 32 31 31 32 32 32 33
29 30 30 29 27 26 26 26 26 26 26 27 28 28 27 26 27 27 27 27 28 28 28 28 29 29 30 30 31 31 32 31 31 31 32 32 32 31 32 33 33 34 34
30 30 30 30 28 27 28 27 27 27 27 28 29 29 28 27 27 28 28 29 29 30 30 30 30 31 31 31 31 32 33 33 32 32 33 33 33 33 34 34 35 35 35
30 30 30 29 29 29 29 29 29 29 29 29 29 28 28 28 29 29 30 31 30 31 31 31 32 32 32 32 32 32 33 34 34 34 35 35 35 35 35 35 36 36 37
31 30 30 30 30 30 30 30 30 30 29 28 27 28 29 30 31 31 32 32 32 33 33 32 32 33 33 33 34 34 35 35 35 35 35 36 36 36 36 36 37 37 37
31 30 30 30 31 31 30 30 31 30 29 28 29 30 31 31 32 33 33 33 34 34 33 33 33 34 34 35 35 35 36 36 36 36 36 36 36 37 37 38 38 39 38
31 31 31 32 32 31 31 31 30 29 29 30 31 31 32 33 33 33 34 34 34 34 33 34 35 35 35 35 36 36 36 36 36 36 36 36 37 37 38 38 39 39 40
30 30 29 29 30 30 30 30 31 31 31 32 32 32 32 33 33 34 34 34 35 35 34 34 35 35 35 34 35 35 35 36 36 36 36 37 38 38 38 39 40 40 40
Wind_Direction
44 47 49 53 56 59 63 69 78 86 91 96 98 101 111 120 121 124 123 130 137 139 142 149 156 163 170 184 201 211 228 237 241 248 254 256 257 255 255 256 258 259 264
38 40 43 49 50 50 55 63 77 87 89 93 99 102 105 112 123 125 131 135 142 155 161 169 176 179 181 188 202 214 230 240 246 256 264 264 260 264 267 270 271 268 269
30 35 36 39 41 44 49 57 71 83 85 87 91 95 101 104 111 124 141 147 158 171 182 192 201 199 203 206 198 210 219 240 249 252 257 261 266 265 268 269 268 265 268
13 20 26 30 33 36 42 51 60 73 79 79 84 89 99 106 109 119 145 174 187 193 197 227 221 224 221 215 227 241 255 257 256 258 267 269 273 270 268 273 275 272 270
349 353 357 10 24 35 40 45 55 64 73 82 83 83 84 90 93 82 124 226 228 224 226 234 225 224 227 229 241 253 264 266 273 274 275 271 270 273 278 277 279 277 273
321 328 328 336 356 18 26 33 49 57 64 76 70 61 61 61 56 31 346 300 264 247 245 236 233 239 245 251 256 261 266 267 271 269 271 272 271 271 275 278 278 276 279
295 299 296 306 312 318 330 347 351 351 352 7 9 360 358 359 351 335 324 316 300 278 258 253 255 255 256 259 260 263 265 267 268 267 269 271 274 274 275 276 276 277 281
277 278 277 277 283 289 294 303 302 296 291 292 295 301 312 320 325 318 309 308 300 289 276 267 267 268 269 265 264 265 267 268 271 273 272 273 274 274 274 276 276 277 280
268 273 277 275 277 282 286 290 289 288 279 276 280 284 290 297 304 310 304 296 291 290 282 273 273 275 275 273 270 270 270 271 273 273 275 278 283 281 278 276 276 278 282
272 274 274 274 278 280 283 285 286 283 278 275 275 276 282 288 292 295 297 293 291 289 286 280 273 272 271 271 273 275 274 273 275 276 277 279 281 283 282 281 281 280 280
270 271 272 273 274 278 280 280 280 279 278 273 272 273 277 282 283 282 283 282 283 283 283 282 279 274 272 272 273 276 278 276 276 276 278 279 280 281 283 284 284 285 286
269 269 269 271 273 274 274 275 276 275 275 272 270 271 274 276 276 276 277 279 280 280 278 278 280 279 278 277 276 276 278 277 277 278 278 276 278 280 281 283 284 285 285
268 268 268 269 273 273 272 272 272 273 274 273 271 272 273 273 273 274 276 278 279 277 274 274 275 275 277 278 280 280 279 278 278 278 278 277 278 280 282 283 284 284 283
264 267 267 268 270 270 270 271 270 271 272 272 272 272 272 272 273 273 275 277 279 277 275 276 276 275 276 277 278 281 281 279 280 280 280 280 280 281 282 283 283 283 282
263 265 265 265 267 269 271 271 272 272 272 273 271 271 272 271 273 273 277 277 279 279 279 279 278 276 276 277 278 279 278 278 279 281 281 281 281 281 281 282 282 284 284
259 263 262 264 268 269 270 271 272 272 272 272 272 272 270 271 273 276 278 280 279 279 279 281 283 281 279 279 281 280 279 279 279 280 280 281 282 283 283 282 283 284 283
260 263 264 265 267 269 270 270 270 270 272 273 270 271 269 270 274 276 277 280 280 279 280 282 282 282 282 281 281 281 280 281 281 281 280 281 281 281 282 282 282 283 284
260 262 264 266 268 269 269 270 271 271 272 272 269 270 270 271 273 274 276 278 280 279 278 279 280 282 282 283 284 283 281 280 280 280 280 281 280 280 281 283 282 282 283
259 261 264 267 268 268 268 268 269 271 272 271 271 271 270 270 272 273 276 278 280 279 277 278 280 281 282 282 283 283 282 281 281 281 281 282 283 282 283 283 283 283 284
259 262 263 266 268 266 265 265 266 268 270 269 271 271 271 272 273 275 278 280 280 281 281 281 281 281 280 280 282 282 282 283 282 283 282 282 283 283 283 283 284 284 284
259 260 262 263 265 264 263 262 264 266 268 269 269 270 270 270 273 276 276 278 280 280 282 281 281 282 281 281 281 282 282 281 281 282 283 281 281 282 282 283 283 283 283
259 261 261 262 263 263 263 262 263 265 267 267 268 268 269 271 274 276 277 278 281 281 281 282 283 281 281 281 281 282 282 281 280 280 281 281 280 281 282 282 283 283 284
258 260 260 260 260 261 261 261 262 265 266 266 266 268 270 272 274 277 278 279 280 282 281 281 282 281 281 281 281 281 282 283 282 281 281 281 281 281 282 282 283 283 283
257 258 258 258 258 259 259 259 262 263 265 266 268 269 271 274 276 278 279 279 280 281 281 281 282 281 281 281 281 281 281 282 283 283 282 282 282 281 281 282 283 283 283
259 259 259 257 256 258 260 261 263 265 265 267 269 271 274 274 277 279 279 280 281 282 282 282 282 282 282 282 281 281 281 282 283 283 282 282 283 283 282 282 282 283 283
259 259 259 258 259 258 260 263 265 266 267 266 268 271 274 278 280 280 281 282 282 282 282 282 282 283 283 282 282 282 282 282 283 283 283 283 283 284 284 284 283 283 282
Height
5897 5896 5894 5893 5891 5890 5889 5888 5888 5887 5887 5887 5887 5887 5887 5888 5888 5888 5888 5889 5889 5889 5890 5890 5890 5891 5891 5891 5892 5892 5892 5893 5893 5894 5894 5894 5894 5894 5894 5895 5895 5895 5895
5899 5897 5896 5894 5893 5892 5891 5890 5889 5889 5889 5889 5889 5889 5889 5889 5889 5889 5889 5889 5890 5890 5890 5891 5891 5891 5891 5892 5892 5892 5892 5892 5892 5893 5893 5893 5894 5893 5893 5893 5893 5893 5893
5900 5899 5897 5896 5894 5893 5892 5891 5891 5890 5890 5890 5890 5890 5890 5890 5890 5890 5890 5890 5890 5890 5891 5891 5891 5891 5891 5891 5892 5892 5892 5892 5892 5892 5892 5892 5892 5892 5892 5892 5892 5891 5891
5901 5900 5899 5897 5896 5895 5894 5893 5892 5891 5891 5891 5891 5891 5891 5891 5891 5890 5890 5891 5890 5890 5891 5891 5891 5891 5891 5891 5891 5891 5891 5891 5891 5891 5891 5891 5891 5891 5891 5891 5890 5889 5889
5902 5900 5899 5898 5897 5896 5895 5894 5893 5892 5892 5892 5892 5892 5892 5891 5891 5891 5891 5891 5890 5890 5890 5890 5890 5890 5891 5891 5891 5891 5890 5890 5890 5890 5890 5890 5890 5890 5889 5889 5888 5888 5887
5901 5900 5900 5899 5898 5897 5896 5895 5894 5894 5893 5893 5893 5892 5892 5892 5891 5891 5891 5890 5890 5890 5889 5889 5889 5890 5890 5890 5890 5890 5889 5889 5889 5889 5889 5888 5888 5888 5888 5887 5886 5886 5885
5900 5900 5899 5899 5898 5897 5896 5896 5895 5894 5894 5894 5893 5893 5892 5892 5892 5891 5890 5890 5889 5889 5889 5889 5889 5889 5889 5889 5889 5888 5888 5888 5888 5887 5887 5887 5886 5886 5885 5885 5884 5883 5883
5899 5899 5898 5898 5897 5897 5896 5895 5895 5894 5894 5894 5893 5893 5892 5892 5891 5891 5890 5889 5889 5888 5888 5888 5888 5887 5887 5887 5887 5887 5886 5886 5886 5885 5885 5884 5883 5883 5882 5882 5881 5880 5880
5897 5897 5897 5897 5896 5896 5895 5895 5894 5894 5893 5893 5893 5892 5892 5891 5891 5890 5889 5889 5888 5887 5887 5886 5886 5885 5885 5885 5885 5884 5884 5884 5883 5883 5882 5881 5881 5880 5879 5879 5878 5877 5876
5896 5896 5895 5895 5895 5894 5894 5894 5893 5893 5892 5892 5891 5891 5891 5890 5889 5889 5888 5887 5887 5886 5885 5885 5884 5883 5883 5883 5882 5882 5881 5881 5881 5880 5879 5878 5877 5877 5876 5875 5874 5873 5872
5893 5893 5893 5893 5893 5892 5892 5892 5891 5891 5890 5890 5889 5889 5889 5888 5887 5887 5886 5885 5884 5884 5883 5882 5881 5881 5880 5880 5879 5879 5878 5878 5877 5876 5875 5874 5873 5873 5872 5871 5870 5869 5868
5889 5889 5890 5889 5890 5890 5890 5889 5889 5888 5888 5887 5887 5887 5886 5886 5885 5884 5883 5883 5882 5881 5880 5879 5878 5878 5877 5877 5876 5875 5874 5874 5873 5872 5871 5870 5869 5869 5868 5867 5866 5865 5863
5885 5885 5886 5886 5886 5886 5886 5886 5886 5885 5885 5884 5884 5884 5883 5883 5882 5881 5880 5879 5878 5877 5876 5876 5875 5874 5874 5873 5872 5871 5870 5869 5868 5867 5867 5866 5864 5864 5863 5862 5860 5859 5858
5881 5881 5881 5882 5882 5882 5882 5882 5882 5881 5881 5881 5880 5880 5880 5879 5878 5877 5876 5875 5874 5873 5872 5872 5871 5870 5869 5868 5867 5866 5865 5864 5863 5862 5861 5860 5859 5858 5857 5856 5855 5853 5852
5876 5876 5877 5877 5877 5877 5877 5877 5877 5877 5877 5876 5876 5876 5875 5875 5874 5873 5872 5871 5870 5869 5868 5867 5865 5865 5864 5863 5862 5861 5859 5858 5857 5856 5856 5854 5853 5852 5851 5850 5849 5847 5846
5871 5871 5871 5872 5872 5872 5872 5872 5872 5872 5871 5871 5871 5871 5870 5869 5869 5868 5867 5866 5865 5863 5862 5862 5860 5859 5858 5857 5856 5854 5853 5852 5851 5850 5849 5848 5847 5845 5844 5843 5842 5840 5839
5864 5865 5865 5866 5866 5866 5866 5866 5866 5866 5865 5865 5865 5864 5864 5864 5863 5862 5861 5860 5859 5858 5856 5855 5854 5853 5851 5850 5849 5847 5846 5845 5843 5842 5842 5840 5839 5838 5836 5835 5834 5832 5830
5858 5858 5859 5859 5859 5859 5859 5859 5859 5859 5859 5859 5858 5858 5858 5857 5857 5855 5854 5853 5852 5851 5850 5849 5847 5846 5845 5843 5842 5840 5838 5837 5836 5835 5833 5832 5830 5829 5828 5826 5825 5824 5822
5850 5851 5851 5852 5852 5853 5853 5853 5853 5853 5852 5852 5852 5852 5851 5850 5850 5849 5847 5846 5845 5844 5842 5841 5840 5839 5838 5836 5834 5832 5831 5829 5828 5827 5825 5823 5822 5820 5819 5817 5816 5815 5813
5842 5842 5843 5844 5844 5845 5845 5845 5846 5845 5845 5845 5844 5844 5843 5842 5842 5841 5840 5838 5837 5836 5835 5833 5832 5831 5830 5828 5826 5824 5822 5821 5820 5818 5816 5815 5813 5811 5809 5808 5807 5805 5804
5833 5834 5834 5836 5837 5837 5837 5838 5838 5838 5838 5837 5836 5836 5836 5835 5835 5834 5833 5831 5830 5828 5827 5826 5824 5822 5821 5819 5817 5815 5813 5811 5810 5808 5807 5805 5803 5802 5800 5798 5797 5795 5793
5825 5825 5826 5827 5828 5829 5829 5830 5830 5830 5829 5829 5828 5828 5828 5827 5826 5826 5825 5823 5821 5820 5819 5817 5816 5814 5812 5810 5808 5806 5804 5802 5800 5798 5797 5795 5794 5792 5790 5788 5786 5784 5782
5816 5817 5817 5818 5819 5819 5820 5821 5821 5821 5820 5819 5819 5820 5819 5819 5818 5817 5816 5814 5813 5811 5810 5808 5806 5804 5802 5800 5799 5796 5794 5792 5790 5788 5787 5785 5783 5781 5779 5777 5775 5773 5771
5808 5808 5809 5809 5810 5810 5810 5811 5811 5811 5811 5811 5811 5811 5811 5810 5809 5808 5807 5805 5804 5802 5801 5799 5797 5795 5793 5791 5788 5786 5784 5782 5780 5778 5776 5774 5772 5770 5768 5766 5764 5762 5760
5798 5799 5799 5799 5800 5801 5802 5802 5802 5801 5802 5802 5802 5802 5801 5801 5799 5798 5797 5796 5794 5793 5791 5789 5787 5784 5782 5780 5778 5776 5774 5772 5770 5767 5765 5763 5761 5759 5757 5754 5752 5750 5747
5790 5790 5790 5791 5791 5792 5792 5793 5793 5792 5792 5791 5792 5792 5792 5791 5790 5789 5787 5786 5785 5783 5781 5779 5776 5774 5772 5769 5767 5765 5763 5761 5759 5756 5754 5752 5750 5747 5745 5743 5740 5738 5736